#timestamp,LO_Frequency,Hit,StdDev 
1686232815.9,286046989.0,N
1686232835.7,286046989.3,N
1686232855.6,286046992.7,N
1686232875.4,286046994.2,N
1686232895.2,286046994.1,N
1686232915.1,286046994.0,N
1686232916.0,286046994.0,N
1686232935.8,286046991.4,N
1686232955.6,286046990.3,N
1686232975.5,286046992.9,N
1686232995.3,286046993.6,N
1686233015.2,286046993.7,N
1686233035.9,286046994.9,N
1686233055.7,286047002.7,N
1686233075.6,286047007.6,N
1686233095.4,286047007.5,N
1686233115.2,286047002.5,N
1686233135.1,286047000.8,N
1686233136.0,286047000.8,N
1686233155.8,286046997.9,N
1686233175.7,286046993.6,N
1686233195.5,286046990.9,N
1686233215.3,286046989.6,N
1686233235.2,286046989.9,N
1686233255.0,286046988.7,N
1686233255.9,286046988.7,N
1686233275.7,286046988.8,N
1686233295.6,286046988.9,N
1686233315.4,286046991.1,N
1686233335.3,286046988.4,N
1686233355.1,286046987.2,N
1686233356.0,286046987.2,N
1686233375.8,286046987.9,N
1686233395.7,286046988.7,N
1686233415.2,286046991.4,N
1686233435.0,286046988.2,N
1686233435.9,286046988.2,N
1686233455.7,286046988.4,N
1686233475.6,286046988.0,N
1686233495.4,286046988.0,N
1686233515.3,286046989.2,N
1686233535.1,286046994.1,N
1686233536.0,286046994.1,N
1686233555.8,286046995.4,N
1686233575.7,286046994.3,N
1686233595.5,286046991.2,N
1686233615.4,286046990.7,N
1686233635.2,286046992.4,N
1686233655.0,286046992.3,N
1686233655.9,286046992.3,N
1686233675.8,286046994.0,N
1686233695.6,286046998.5,N
1686233715.4,286047001.6,N
1686233735.3,286046999.8,N
1686233755.1,286047002.1,N
1686233775.9,286047003.9,N
1686233795.7,286047005.9,N
1686233815.5,286047004.9,N
1686233835.4,286047004.5,N
1686233855.2,286047004.6,N
1686233875.0,286047005.8,N
1686233875.9,286047005.8,N
1686233895.8,286047001.0,N
1686233915.6,286046999.0,N
1686233935.5,286046998.6,N
1686233955.3,286047002.3,N
1686233975.1,286047003.4,N
1686233995.9,286047007.5,N
1686234015.7,286047005.8,N
1686234035.5,286047007.6,N
1686234055.4,286047004.0,N
1686234075.2,286046999.7,N
1686234095.1,286046998.8,N
1686234096.0,286046998.8,N
1686234115.8,286047001.7,N
1686234135.6,286047007.3,N
1686234155.5,286047007.0,N
1686234175.3,286047003.1,N
1686234195.1,286047003.8,N
1686234215.9,286047005.9,N
1686234235.7,286047006.9,N
1686234255.6,286047010.8,Y
1686234275.4,286047004.4,P
1686234295.3,286046999.7,N
1686234315.1,286047005.5,N
1686234335.8,286047005.0,N
1686234355.7,286047003.4,N
1686234375.5,286047007.7,Y
1686234395.4,286047008.1,P
1686234415.2,286047006.5,N
1686234435.0,286047005.1,N
1686234435.9,286047005.1,Y
1686234455.8,286046999.8,P
1686234475.6,286046999.6,N
1686234495.5,286046997.3,N
1686234515.3,286047001.0,N
1686234535.2,286047003.2,N
1686234555.9,286047008.5,Y
1686234575.7,286047007.8,P
1686234595.6,286047006.2,N
1686234615.4,286047008.5,N
1686234635.2,286047007.0,N
1686234655.1,286047004.0,N
1686234656.0,286047004.0,N
1686234675.8,286047004.5,N
1686234695.7,286047006.4,N
1686234715.5,286047012.0,Y
1686234735.3,286047009.5,P
1686234755.2,286047012.9,P
1686234775.0,286047017.1,P
1686234775.9,286047017.1,Y
1686234795.7,286047005.8,P
1686234815.6,286047009.2,P
1686234835.4,286047010.7,P
1686234855.3,286047006.1,N
1686234875.1,286047004.6,N
1686234876.0,286047004.6,N
1686234895.8,286047006.8,N
1686234915.7,286047005.0,N
1686234935.5,286047005.7,N
1686234955.4,286047007.3,Y
1686234975.2,286047002.1,P
1686234995.0,286047001.3,N
1686234995.9,286047001.3,N
1686235015.8,286047003.9,N
1686235035.6,286047003.7,N
1686235055.4,286046999.0,N
1686235075.3,286046996.5,N
1686235095.1,286047002.3,N
1686235115.9,286046998.2,N
1686235135.7,286046996.9,N
1686235155.5,286046995.4,N
1686235175.4,286046996.1,N
1686235195.2,286047011.9,Y
1686235215.0,286046996.4,P
1686235216.0,286046996.4,N
1686235235.8,286046993.5,P
1686235255.6,286046996.1,N
1686235275.5,286046997.3,N
1686235295.3,286046999.5,N
1686235315.1,286047000.1,N
1686235335.9,286047001.5,N
1686235355.7,286047006.0,N
1686235375.5,286047006.7,N
1686235395.4,286047010.3,N
1686235415.2,286047010.7,N
1686235435.1,286047010.7,N
1686235436.0,286047010.7,N
1686235455.8,286047010.8,N
1686235475.6,286047008.8,N
1686235495.5,286047008.5,N
1686235515.3,286047010.0,N
1686235535.2,286047009.6,N
1686235555.0,286047011.1,N
1686235555.9,286047011.1,N
1686235575.7,286047013.6,N
1686235595.6,286047011.5,N
1686235615.4,286047012.9,N
1686235635.3,286047012.6,N
1686235655.1,286047013.4,N
1686235675.9,286047011.5,N
1686235695.7,286047013.9,N
1686235715.5,286047011.3,N
1686235735.4,286047012.1,N
1686235755.2,286047012.2,N
1686235775.0,286047010.8,N
1686235775.9,286047010.8,N
1686235795.8,286047006.4,N
1686235815.6,286047007.0,N
1686235835.5,286047008.9,N
1686235855.3,286047007.5,N
1686235875.1,286047007.7,N
1686235895.9,286047009.4,Y
1686235915.7,286046998.4,P
1686235935.5,286046996.1,N
1686235955.4,286046993.7,N
1686235975.2,286046994.0,N
1686235995.1,286046987.4,N
1686235996.0,286046987.4,N
1686236015.8,286046984.6,N
1686236035.6,286046980.5,N
1686236055.5,286046989.6,N
1686236075.3,286046995.9,N
1686236095.2,286047002.6,N
1686236115.9,286047000.6,N
1686236135.7,286047002.5,N
1686236155.6,286047009.9,N
1686236175.4,286047013.1,N
1686236195.2,286047017.5,N
1686236215.1,286047019.8,N
1686236216.0,286047019.8,N
1686236235.8,286047024.1,N
1686236255.7,286047027.1,N
1686236275.5,286047026.7,N
1686236295.3,286047028.3,N
1686236315.2,286047024.9,N
1686236335.0,286047021.9,N
1686236335.9,286047021.9,N
1686236355.8,286047018.7,N
1686236375.6,286047016.2,N
1686236395.4,286047012.6,N
